RH
65 50 47 60 78 70 57 67 51 57 51 38 33 34 39 35 41 62 36 21 18 18 15 21 33 42 48 51 53 54 55 56 57 56 56 55 54 54 54 54 54 54 55 57 58 60 62 67 67
52 28 52 66 70 53 63 49 60 54 45 36 31 33 37 37 23 22 24 19 14 12 14 19 33 41 46 50 54 55 57 58 58 58 57 55 56 57 56 55 54 53 52 55 56 58 59 63 65
51 24 57 64 54 58 60 51 56 39 32 33 33 25 26 27 18 19 16 14 11 13 18 20 34 40 45 50 53 55 59 60 60 61 61 60 59 58 57 55 54 54 53 53 54 55 55 58 61
42 46 39 48 50 43 41 44 38 35 28 30 27 26 19 17 18 14 11 11 13 15 18 25 34 40 45 51 54 57 58 61 67 68 66 64 64 65 62 60 58 56 55 54 53 53 55 55 58
40 45 49 40 42 36 34 36 41 35 28 23 25 25 21 16 13 13 14 13 16 18 21 20 33 38 43 48 52 55 56 61 63 64 64 66 67 64 62 64 62 58 56 54 54 55 56 55 55
50 37 36 48 40 31 27 29 30 26 21 20 22 22 20 14 16 16 14 15 15 17 20 23 30 38 41 46 52 53 54 56 58 60 59 58 61 64 60 59 61 60 58 57 57 57 56 54 54
51 50 41 43 40 33 26 21 24 24 22 16 13 23 17 16 17 15 15 15 15 18 21 26 33 35 41 46 49 50 54 55 58 58 58 56 61 60 58 54 53 52 52 54 54 55 54 54 53
48 48 39 42 38 41 25 20 17 18 17 13 12 19 24 17 16 16 15 14 17 20 26 29 35 38 42 47 48 52 54 55 56 58 58 59 59 60 61 64 56 55 55 56 56 58 58 57 54
40 56 52 47 41 36 23 20 15 13 14 13 13 15 15 15 15 16 17 18 23 24 29 32 37 40 43 41 39 53 55 51 53 57 57 56 54 54 57 60 62 64 59 56 57 57 58 58 57
42 58 45 32 33 32 25 21 17 17 18 18 16 14 14 14 13 15 18 25 28 30 33 35 42 44 40 34 44 55 48 56 57 55 50 49 50 48 49 55 60 63 64 60 54 52 51 53 53
36 47 32 28 26 23 22 21 19 22 27 20 20 18 16 14 14 17 19 25 28 30 38 36 38 39 40 42 45 56 55 62 62 47 51 57 57 61 59 62 64 62 59 57 57 51 45 45 52
36 29 28 29 24 22 21 17 19 20 23 17 20 17 15 14 15 18 25 27 29 29 33 37 40 40 42 45 49 51 52 55 60 56 63 61 64 64 66 65 63 62 60 58 59 59 53 49 40
32 28 24 24 22 20 17 20 19 19 19 14 14 14 15 13 17 21 27 28 28 27 34 35 38 43 41 44 49 50 53 54 55 50 54 54 61 66 67 65 66 67 66 63 61 59 58 57 51
26 25 23 20 18 18 19 20 22 17 16 16 14 15 12 14 18 25 29 30 28 32 34 34 36 40 43 44 46 53 54 56 54 57 54 50 58 65 66 67 71 72 71 69 65 63 61 59 58
20 24 22 21 19 22 19 23 20 18 13 16 15 12 12 13 20 30 31 29 31 35 33 37 34 38 44 46 50 56 56 53 60 54 52 56 58 60 66 74 78 78 75 75 72 64 64 64 58
23 25 35 22 22 21 30 39 19 18 18 20 16 10 13 14 24 31 30 28 34 35 35 35 32 38 43 46 48 48 52 58 57 53 58 58 60 63 70 79 82 80 83 84 82 79 75 70 66
27 31 34 29 21 22 26 37 20 18 19 20 15 12 12 14 26 31 28 29 34 35 37 39 40 41 44 48 51 52 54 57 56 57 59 63 66 68 77 83 82 81 86 85 84 79 79 76 70
24 23 24 31 25 25 31 31 20 18 19 22 14 13 14 15 28 31 29 29 35 36 40 41 42 45 47 52 53 57 60 60 58 60 63 60 62 70 80 80 84 83 88 89 90 91 86 81 75
18 18 22 27 24 30 30 29 22 20 20 23 15 15 15 17 28 31 30 31 38 37 42 44 46 47 49 56 56 58 62 63 64 64 52 59 67 72 68 77 84 86 90 92 91 92 93 92 84
19 17 28 28 22 27 24 27 22 20 21 23 14 16 16 20 31 36 32 35 41 42 45 45 45 48 49 58 59 64 62 66 61 54 54 62 66 68 64 73 85 89 92 88 90 91 94 93 87
22 19 16 16 28 24 25 29 25 19 19 19 12 16 16 22 35 39 36 40 45 47 48 45 48 50 51 55 58 64 65 57 56 57 60 64 59 63 70 74 80 85 91 94 93 91 92 96 94
28 18 18 18 31 37 23 38 30 23 22 17 14 18 19 25 35 40 38 44 47 48 48 48 48 51 48 55 62 67 64 60 57 59 58 60 59 63 68 73 76 84 87 93 94 85 92 95 97
20 27 26 28 28 31 31 41 49 22 21 18 16 20 20 27 39 43 42 45 46 48 52 52 52 54 56 59 65 72 72 64 58 64 70 61 63 68 68 74 80 86 90 90 92 92 89 95 96
19 27 29 32 35 46 36 30 37 27 22 21 20 20 20 29 41 44 42 45 49 50 52 54 54 56 57 61 64 69 73 71 68 69 81 68 68 71 70 76 85 88 92 90 94 92 88 93 95
21 28 49 57 56 43 21 26 33 22 22 20 23 23 22 33 44 49 50 53 51 51 53 48 55 58 56 59 64 65 70 68 72 71 76 74 66 70 70 88 95 94 92 90 90 92 89 88 95
22 27 38 39 42 37 27 42 38 21 18 16 19 23 22 35 46 51 49 53 52 47 51 53 56 57 56 58 65 65 66 68 71 72 73 73 58 60 66 92 94 93 92 89 88 93 89 87 93
22 32 29 29 28 42 40 29 26 22 19 17 19 22 26 38 48 50 45 49 49 49 50 51 55 56 57 60 63 63 65 63 66 66 66 68 53 52 68 88 89 90 90 88 88 90 88 82 87
22 20 34 40 71 50 29 27 36 30 25 18 20 25 25 39 49 49 46 48 48 47 48 50 53 55 56 60 59 62 63 59 62 60 60 59 51 54 65 84 87 88 87 82 81 88 79 80 85
26 25 24 26 27 59 49 36 26 24 24 26 23 23 25 42 51 49 47 51 51 47 48 51 53 55 58 58 58 68 66 58 61 58 57 56 48 56 61 70 83 79 81 80 84 86 82 82 81
24 24 20 71 58 46 76 57 16 20 22 24 26 22 25 40 50 48 49 56 56 51 49 50 53 57 57 55 56 67 64 63 64 64 58 58 50 56 56 66 71 82 76 71 76 79 78 82 87
Wind_Speed
11 10 6 2 3 4 5 4 12 12 6 10 11 13 18 16 8 5 5 6 7 7 8 7 17 19 21 21 22 22 22 23 24 23 23 23 21 21 20 19 20 19 19 18 19 19 19 19 18
7 7 2 4 4 6 5 14 13 12 8 5 9 11 11 10 11 9 7 8 7 7 6 7 17 19 20 21 22 22 22 22 22 22 21 21 21 23 23 22 21 20 18 19 18 19 20 20 18
6 9 2 4 2 5 4 11 11 10 9 7 6 12 7 6 11 4 6 7 7 7 7 8 16 18 19 20 21 21 22 22 21 22 22 22 22 22 23 22 22 22 21 19 20 19 19 21 20
4 2 4 4 12 8 11 8 9 9 9 6 12 13 7 9 5 6 8 7 6 6 7 10 18 19 21 22 22 21 21 22 23 22 23 23 23 23 23 23 23 23 22 21 21 19 21 20 20
2 4 4 8 13 10 9 6 2 10 6 11 5 8 7 7 7 7 6 7 7 7 7 8 19 19 19 20 21 21 20 23 22 22 22 22 23 23 23 24 24 24 23 22 21 20 22 21 22
3 3 5 4 9 8 8 7 11 13 12 12 12 9 7 8 7 7 8 7 7 8 8 8 15 19 20 19 20 20 20 20 20 22 22 21 22 22 22 22 23 23 24 23 23 23 23 24 23
4 4 5 13 10 7 7 10 10 11 10 9 12 5 7 10 7 7 8 8 8 9 8 7 8 14 17 20 21 19 20 19 21 23 23 22 22 24 23 21 20 20 20 22 22 23 23 24 24
3 2 2 5 9 6 7 6 9 9 8 3 13 7 4 7 8 7 8 8 9 8 8 7 7 8 9 7 19 21 20 22 20 22 22 22 22 23 23 26 20 21 22 23 23 24 23 24 23
3 3 7 7 6 10 11 7 8 8 11 12 7 8 5 8 9 8 7 8 8 7 7 7 8 9 9 11 11 15 19 19 17 17 19 17 7 8 14 19 23 24 20 20 22 24 24 24 25
6 5 6 6 7 9 6 10 8 7 9 9 9 9 8 8 8 9 9 8 9 10 8 8 7 7 7 8 9 5 8 5 5 7 11 10 10 10 15 14 22 23 23 25 22 21 21 19 9
6 5 8 10 11 12 10 7 4 7 7 6 7 7 8 7 9 10 10 10 10 9 7 8 8 8 9 8 7 4 3 3 3 7 8 8 7 7 6 5 5 7 16 8 13 13 9 8 7
7 8 8 7 10 11 9 7 9 11 5 4 3 4 7 9 9 9 9 9 10 9 8 8 8 7 7 5 4 5 4 4 3 5 4 6 5 7 6 6 8 7 7 10 9 7 12 16 12
14 12 10 9 10 9 8 9 8 7 3 4 3 4 7 8 9 8 8 9 9 9 9 9 8 7 6 5 4 4 4 4 5 8 8 8 7 6 7 6 7 7 8 8 9 9 10 11 14
11 12 12 9 8 9 9 7 3 5 5 2 4 5 7 8 8 8 9 9 9 9 9 8 8 7 7 6 7 5 4 5 6 6 8 11 7 6 6 7 8 8 7 8 8 8 9 9 10
16 11 9 7 8 4 9 6 6 2 5 5 6 7 8 8 8 8 8 8 8 8 9 9 9 8 7 8 6 5 5 6 5 8 11 10 9 9 10 6 6 8 8 10 8 8 8 8 10
4 7 6 9 7 7 2 3 6 1 3 3 6 7 7 8 8 8 8 8 8 8 8 9 9 9 10 8 7 5 6 6 7 8 8 9 10 12 10 9 6 7 7 7 7 6 7 7 8
7 5 6 9 10 6 6 1 8 2 2 4 7 8 7 8 9 8 8 7 7 7 8 8 8 10 10 7 6 7 7 6 7 8 7 10 8 11 9 10 9 10 7 7 7 7 6 6 8
6 5 3 7 8 6 6 6 7 5 3 4 7 7 7 8 8 7 8 7 7 7 8 8 7 7 7 5 5 4 4 5 6 8 9 15 11 11 10 8 10 10 9 6 6 8 6 7 7
6 6 3 4 4 3 8 5 10 7 6 3 6 7 7 8 8 8 7 8 8 8 8 8 8 8 6 5 8 7 8 8 9 7 15 13 12 12 12 7 9 10 9 10 8 7 7 6 5
5 7 5 3 4 4 7 5 8 8 5 1 5 6 6 8 8 7 8 8 7 8 8 8 8 8 7 5 4 3 7 7 8 10 14 13 14 13 11 12 7 10 9 9 10 8 5 5 4
3 4 5 6 3 7 6 7 8 7 5 6 5 6 7 7 8 7 8 8 7 8 8 8 8 7 7 7 5 3 4 7 9 10 10 11 14 12 12 11 10 9 9 8 10 8 8 5 3
2 5 4 6 1 2 6 4 6 8 7 4 7 7 7 8 7 7 7 8 7 7 7 8 7 7 8 8 6 6 6 10 7 6 9 11 13 15 12 11 10 10 7 10 10 7 4 4 6
2 3 4 5 5 7 7 2 3 7 6 5 7 6 7 7 7 7 7 8 9 7 7 7 7 7 7 7 7 5 5 6 7 4 6 11 11 13 13 12 12 10 8 8 11 10 5 6 4
2 6 6 4 4 3 7 2 5 4 4 4 6 6 6 7 7 7 7 7 7 7 7 7 7 7 8 7 8 8 8 8 9 9 4 7 9 9 12 13 12 9 8 8 8 9 5 3 2
6 5 2 3 2 2 5 2 1 8 5 3 3 5 6 7 7 6 7 6 8 7 7 7 8 7 8 8 8 8 8 12 12 12 10 7 10 10 12 14 12 9 8 8 8 7 4 2 2
4 3 2 4 4 4 3 4 3 8 5 6 3 3 6 6 6 6 6 6 7 7 7 7 8 7 8 8 8 7 9 9 9 11 12 4 9 11 14 16 13 9 7 7 7 4 5 3 2
4 0 2 3 3 3 5 4 4 6 7 6 3 5 6 7 6 6 6 5 6 6 7 7 8 7 7 8 7 6 7 9 10 13 11 5 9 11 14 18 17 9 5 6 7 5 5 2 3
3 1 1 1 3 5 7 5 5 7 0 4 5 5 6 6 6 6 5 5 6 5 5 7 7 7 7 8 7 6 8 7 8 10 9 8 8 11 13 15 16 13 7 7 8 8 7 4 1
2 3 2 0 2 2 5 4 4 7 3 3 4 5 4 4 5 5 6 6 8 7 7 7 7 7 8 8 7 7 9 12 7 8 12 13 10 9 13 13 15 13 13 12 12 12 12 11 10
3 4 2 4 2 1 4 8 7 8 5 6 2 5 3 4 5 4 6 8 8 7 7 7 7 7 7 8 7 7 9 11 7 7 11 13 10 8 12 13 13 12 9 11 10 10 10 10 10
Wind_Direction
285 240 217 290 259 216 22 45 58 43 76 63 63 71 89 43 20 70 100 22 4 353 8 7 357 352 349 347 346 343 340 337 334 331 327 323 322 320 319 316 315 315 318 318 323 323 321 319 323
290 273 307 265 248 283 58 61 63 60 76 125 41 99 53 82 56 81 37 354 350 351 5 359 353 349 346 346 343 341 339 336 331 328 325 322 322 321 315 309 306 305 306 309 313 317 319 316 313
261 250 257 209 23 35 63 77 84 79 38 38 121 46 42 3 58 35 19 336 345 354 17 0 353 346 346 344 343 341 338 334 332 329 325 321 317 313 309 306 304 302 301 300 302 307 311 313 308
273 232 263 239 103 51 45 88 119 139 82 44 115 94 92 38 33 17 338 330 358 1 12 352 348 345 345 344 343 341 339 341 336 335 331 327 322 316 311 309 307 306 302 300 296 297 302 305 303
243 258 253 247 74 88 68 47 53 89 84 43 51 82 90 74 28 349 332 345 357 7 13 5 347 342 343 343 341 338 339 338 335 334 332 330 327 322 318 314 306 301 298 296 296 298 296 300 297
268 225 280 47 91 91 70 58 63 71 52 10 102 111 93 75 24 335 332 339 354 16 12 5 351 346 340 341 337 334 338 333 332 334 330 330 329 324 317 312 305 300 298 300 297 294 292 290 291
290 299 292 117 121 126 85 32 34 58 62 27 335 120 90 36 347 327 339 350 16 13 11 1 6 352 347 344 332 335 337 341 343 339 337 332 336 333 331 324 313 304 301 293 288 285 287 286 285
282 269 238 46 164 101 114 77 46 68 41 122 358 41 47 351 326 348 354 0 14 9 7 356 5 354 352 330 334 347 347 339 342 344 334 348 344 331 332 333 322 312 309 302 294 290 287 285 280
289 267 28 29 35 107 121 110 89 113 97 71 75 67 15 354 347 357 355 2 1 358 358 8 3 2 349 346 351 356 346 341 345 337 341 347 322 333 319 327 323 325 315 296 292 292 288 285 284
21 50 45 10 99 124 124 112 134 114 72 47 46 26 8 357 5 1 352 356 353 355 354 9 4 1 345 338 337 12 309 315 4 336 334 330 321 323 331 330 329 330 326 332 321 311 299 285 287
8 85 95 55 83 99 100 106 53 126 86 56 16 356 356 358 5 358 353 360 352 343 2 358 12 1 357 352 334 346 329 327 356 328 319 316 318 317 320 320 318 324 323 328 328 328 317 306 257
99 86 97 93 94 112 95 84 73 50 81 39 358 294 10 1 4 352 359 353 349 354 354 355 10 9 355 337 335 315 331 325 301 290 296 317 311 314 317 322 320 320 316 322 316 326 324 320 303
93 103 93 94 82 95 107 76 102 91 114 220 268 23 24 4 3 343 11 355 352 355 360 357 3 358 343 346 315 319 315 308 316 351 352 334 311 315 313 315 318 309 308 304 309 315 315 317 317
113 108 112 114 109 122 123 137 194 106 255 261 27 1 31 16 348 3 10 356 355 351 1 358 354 359 345 342 327 314 308 356 353 343 332 330 331 329 311 320 314 305 301 295 296 298 302 306 309
125 114 126 141 156 129 147 159 91 106 252 29 344 16 35 3 10 27 11 -0 357 348 354 1 351 348 4 343 328 341 341 355 349 340 332 318 339 335 317 310 312 302 298 293 287 286 295 299 303
137 165 171 176 165 149 179 117 122 170 351 1 353 22 18 6 24 33 16 4 2 346 5 358 348 355 360 353 345 346 352 356 348 329 330 334 337 340 335 319 308 304 301 287 279 273 273 286 293
178 281 143 166 190 131 207 97 133 193 270 339 10 19 6 3 23 34 21 2 360 0 13 352 356 5 354 348 343 358 343 345 337 324 329 340 337 340 331 332 325 310 298 293 285 281 270 281 292
336 278 97 100 177 190 207 180 153 164 272 359 1 12 11 4 12 27 23 5 355 9 15 356 353 347 357 334 347 340 333 321 342 335 1 337 331 333 317 330 315 316 300 290 292 282 264 265 275
289 297 317 93 116 259 236 212 162 167 237 29 347 23 8 8 4 23 20 14 357 9 8 355 351 351 355 2 344 347 351 352 349 342 348 332 327 328 328 319 325 317 317 314 279 278 274 262 252
293 304 63 112 130 212 280 227 142 161 216 232 347 30 11 7 4 15 15 10 4 11 1 348 352 3 357 348 342 351 353 346 335 340 344 331 323 323 325 325 324 320 313 304 293 279 275 270 214
116 21 356 321 164 233 284 249 142 174 133 235 46 51 25 6 5 8 14 8 3 10 352 350 354 4 343 357 325 354 340 338 341 342 341 332 325 325 323 323 321 320 317 311 300 286 272 267 233
308 4 309 289 201 343 177 297 163 156 199 183 43 38 20 1 7 12 12 3 9 0 349 349 352 358 346 344 340 344 340 341 335 340 337 331 323 323 321 320 319 319 312 314 311 283 329 246 262
24 317 307 301 249 287 171 252 106 122 205 52 28 23 22 7 8 10 10 12 360 353 346 339 354 349 336 343 343 338 326 324 328 325 328 327 326 317 317 318 324 312 318 314 313 313 284 267 222
297 256 203 254 262 264 134 205 194 172 97 29 18 12 11 9 13 14 12 8 337 344 345 336 356 340 339 352 343 335 331 332 345 333 318 326 326 320 320 325 320 317 312 312 310 310 292 331 106
238 272 292 298 264 245 102 286 87 123 113 75 7 8 15 9 14 13 11 5 328 353 348 342 349 339 342 353 341 334 4 7 346 337 326 327 333 331 329 334 327 318 312 308 305 304 297 271 196
322 334 80 279 321 305 132 254 195 124 193 115 93 40 35 10 14 13 9 13 323 1 349 339 337 338 346 351 338 337 34 5 342 326 321 322 338 335 342 335 324 311 314 314 304 302 305 264 197
10 0 357 299 267 319 192 86 92 168 232 74 54 64 32 10 11 11 0 3 342 -0 356 332 335 344 349 346 336 352 26 358 338 322 310 326 336 344 351 351 353 13 350 318 310 311 298 342 213
312 215 321 267 349 306 294 112 183 195 189 24 32 52 25 13 12 5 354 348 356 357 344 332 345 348 352 342 332 27 5 332 320 321 337 335 340 352 360 2 2 8 4 346 0 349 355 1 134
198 203 197 18 117 204 310 264 74 125 92 25 14 69 35 12 25 358 341 36 347 357 350 345 348 360 352 340 335 34 347 325 339 358 349 338 345 5 4 3 7 11 17 12 16 8 15 16 16
327 339 350 120 227 187 168 275 119 132 158 159 301 78 22 42 40 8 358 41 346 350 339 350 351 2 348 334 346 33 343 327 353 9 348 335 343 20 6 5 7 8 24 20 20 18 21 17 10